Date,TemperatureHighF,TemperatureAvgF,TemperatureLowF,DewpointHighF,DewpointAvgF,DewpointLowF,HumidityHigh,HumidityAvg,HumidityLow,PressureMaxIn,PressureMinIn,WindSpeedMaxMPH,WindSpeedAvgMPH,GustSpeedMaxMPH,PrecipitationSumIn
2013-1-1,36.0,29.1,13.0,33.5,21.5,13.0,100,76,44,29.72,29.52,11,2,18,0.03
2013-1-2,30.0,16.6,6.0,23.0,12.6,6.0,100,86,55,29.89,29.70,8,2,15,0.01
2013-1-3,25.0,11.3,-2.0,14.0,4.6,-2.0,100,79,32,29.92,29.77,5,1,10,0.00
2013-1-4,37.0,22.5,6.0,31.2,19.9,6.0,100,91,60,29.76,29.61,8,1,13,0.02
2013-1-5,42.0,29.9,18.0,31.7,23.8,17.6,100,82,40,30.04,29.62,10,2,16,0.09
2013-1-6,44.0,29.6,19.0,36.5,26.9,19.0,100,91,57,29.99,29.74,6,1,10,0.06
2013-1-7,39.0,25.4,16.0,34.4,18.1,7.3,100,76,41,30.19,29.75,7,1,12,0.00
2013-1-8,47.0,29.2,15.0,35.3,21.3,-0.7,100,74,32,30.15,30.06,9,1,10,0.00
2013-1-9,43.0,32.5,18.0,39.7,25.4,7.2,100,76,45,30.18,29.82,7,1,12,0.00
2013-1-10,47.0,39.6,28.0,33.7,27.8,23.6,100,65,40,30.34,29.86,15,3,20,0.00
2013-1-11,38.0,31.1,21.0,35.7,25.6,15.1,100,82,42,30.32,30.04,5,0,7,0.11
2013-1-12,40.0,37.2,34.0,15.1,7.3,2.5,42,29,21,30.04,29.94,3,0,4,0.03
2013-1-13,50.0,43.8,37.0,27.8,4.6,-6.1,42,20,10,29.98,29.84,3,0,8,0.00
2013-1-14,62.0,49.8,40.0,58.0,31.4,13.6,95,55,23,30.07,29.69,10,2,13,0.00
2013-1-15,40.0,38.4,37.0,35.7,33.5,32.6,95,82,75,30.10,30.05,4,1,8,0.00
2013-3-5,44.0,42.2,39.0,36.7,32.7,28.8,91,70,56,30.02,29.99,8,2,10,0.00
2013-3-6,39.0,35.5,33.0,34.0,14.9,-10.1,82,45,14,30.11,30.05,20,6,20,0.18
2013-3-7,33.0,30.9,29.0,21.3,4.1,-15.7,67,34,13,30.06,29.97,22,5,22,0.08
2013-3-8,39.0,31.6,28.0,34.9,1.7,-26.0,94,40,7,30.13,29.91,15,3,15,0.16
2013-3-9,52.0,34.3,20.0,37.9,21.4,-7.6,95,63,24,30.33,30.11,12,2,13,0.54
2013-3-10,51.0,32.2,16.0,40.8,17.2,-10.4,93,56,17,30.41,30.29,7,1,10,0.55
2013-3-11,56.0,42.1,31.0,47.3,24.5,-19.2,94,53,7,30.31,30.15,9,1,9,0.00
2013-3-12,56.0,48.7,40.0,33.8,-30.3,-52.1,43,7,1,30.15,29.76,13,1,13,0.42
2013-3-13,52.0,45.9,42.0,9.4,-17.6,-49.0,23,10,1,29.78,29.75,11,2,11,0.00
2013-3-14,33.0,26.6,21.0,14.5,10.8,6.7,63,51,42,29.79,29.70,17,3,21,0.00
2013-3-15,45.0,29.6,18.0,33.4,15.1,5.9,94,58,23,29.84,29.62,15,2,15,0.00
2013-3-16,42.0,33.3,25.0,31.1,17.7,7.8,96,57,26,29.85,29.64,12,2,13,0.00
2013-3-17,40.0,28.7,17.0,25.0,12.6,4.4,100,56,24,30.28,29.85,13,2,15,0.00
2013-3-18,42.0,28.2,14.0,30.0,10.3,1.8,100,51,20,30.43,30.21,8,1,10,0.00
2013-3-19,34.0,30.7,26.0,20.1,-17.8,-30.7,72,15,5,30.21,29.60,17,3,17,0.53
2013-3-20,39.0,28.9,20.0,32.1,16.6,-15.3,95,63,17,29.78,29.66,13,2,15,0.44
2013-3-21,41.0,27.1,15.0,32.7,14.5,-10.4,95,60,20,29.77,29.57,9,1,9,0.20
2013-3-22,43.0,32.5,23.0,28.3,20.9,-17.5,91,65,15,29.70,29.57,13,2,15,0.17
2013-3-23,46.0,34.3,24.0,32.2,22.6,16.7,100,66,35,29.76,29.64,17,3,18,0.00
2013-3-24,50.0,37.0,28.0,35.2,25.8,21.2,100,67,37,29.83,29.72,15,2,15,0.00
2013-3-25,44.0,35.1,27.0,41.0,29.8,6.9,95,82,42,29.75,29.53,16,3,16,0.00
2013-3-26,53.0,40.7,32.0,37.2,28.8,18.0,96,67,29,29.77,29.53,12,2,12,0.00
2013-3-27,56.0,40.4,22.0,38.3,25.4,4.1,100,60,31,29.88,29.73,14,2,17,0.00
2013-3-28,51.0,41.6,35.0,42.5,27.7,1.8,94,61,24,30.02,29.87,10,2,13,0.01
2013-3-29,59.0,43.0,26.0,43.4,26.7,-31.8,88,55,6,30.08,29.98,11,1,13,0.01
2013-3-30,60.0,45.0,29.0,37.9,24.0,-24.4,92,49,7,30.11,30.03,13,2,13,0.01
2013-3-31,64.0,44.0,23.0,46.5,23.2,-17.4,91,47,11,30.13,29.75,13,1,17,0.04
2013-4-1,64.0,47.3,34.0,51.4,4.4,-52.1,89,34,1,29.78,29.56,17,2,17,0.16
2013-4-2,43.0,34.1,27.0,18.6,13.7,8.6,65,43,29,29.92,29.78,17,3,18,0.00
2013-4-3,48.0,36.6,28.0,20.0,13.9,9.2,67,41,22,30.14,29.90,16,3,19,0.00
2013-4-4,60.0,42.1,24.0,26.0,18.1,11.7,93,42,17,30.30,30.05,12,2,12,0.04
2013-4-5,65.0,46.4,33.0,37.6,28.2,19.2,92,55,19,30.05,29.70,14,2,16,0.04
2013-4-6,48.0,37.4,26.0,30.8,13.0,3.2,97,40,17,30.31,29.89,22,3,22,0.00
2013-4-7,59.0,41.5,22.0,45.2,28.8,15.3,96,65,28,30.31,30.02,15,2,16,0.00
2013-4-8,69.0,52.0,37.0,47.5,20.4,-51.5,91,39,1,30.13,29.96,11,1,12,0.00
2013-4-9,73.0,56.0,45.0,58.0,26.2,-49.0,91,44,1,30.12,29.91,14,1,15,0.04
2013-4-10,69.0,52.2,45.0,56.7,2.3,-50.3,91,30,1,30.05,29.90,10,1,10,0.22
2013-4-11,55.0,47.0,41.0,46.6,-9.3,-51.5,91,28,1,30.16,29.85,10,2,12,0.10
2013-4-12,41.0,37.7,36.0,29.4,-18.1,-55.8,64,17,1,30.17,29.79,15,3,15,0.58
2013-4-13,54.0,43.3,35.0,46.8,4.5,-55.8,92,36,1,29.96,29.75,11,2,13,0.06
2013-4-14,53.0,44.7,32.0,43.1,17.1,-54.0,91,42,1,30.21,29.92,15,2,16,0.00
2013-4-15,63.0,44.9,27.0,45.9,21.6,-35.4,91,44,4,30.43,30.20,10,1,11,0.00
2013-4-16,69.0,52.2,35.0,55.4,21.5,-56.4,91,41,1,30.42,30.11,13,2,15,0.00
2013-4-17,68.0,58.1,45.0,47.6,29.1,-24.0,76,38,3,30.37,30.11,14,3,14,0.00
2013-4-18,69.0,51.0,33.0,49.5,28.8,-11.1,90,45,12,30.48,30.19,13,2,13,0.00
2013-4-19,77.0,62.9,52.0,68.9,-5.0,-45.3,90,20,1,30.19,29.73,17,2,17,0.00
2013-4-20,67.0,53.7,43.0,46.6,4.1,-50.3,77,29,1,30.24,29.67,21,2,21,0.60
2013-4-21,56.0,42.6,31.0,34.6,23.2,11.6,91,48,26,30.68,30.24,14,2,14,0.00
2013-4-22,55.0,41.8,27.0,41.5,17.8,-40.4,91,45,4,30.82,30.61,16,2,17,0.00
2013-4-23,41.0,39.8,37.0,27.5,-27.2,-54.6,65,20,1,30.61,30.15,13,4,14,0.02
2013-4-24,78.0,57.2,40.0,56.6,11.2,-53.3,90,32,1,30.15,29.89,12,3,13,0.00
2013-4-25,67.0,55.1,40.0,44.6,23.3,-45.3,89,37,1,30.29,29.88,15,2,15,0.04
2013-4-26,63.0,48.4,32.0,46.2,18.0,-55.8,90,35,1,30.49,30.29,15,2,15,0.04
2013-4-27,69.0,51.8,34.0,45.8,10.8,-57.1,89,31,1,30.50,30.36,9,1,9,0.00
2013-4-28,75.0,54.8,36.0,49.6,14.3,-55.8,71,29,1,30.43,30.29,12,1,13,0.00
2013-4-29,75.0,58.3,44.0,53.7,27.1,-50.3,89,35,1,30.35,30.27,9,1,12,0.00
2013-4-30,74.0,57.4,43.0,44.2,29.5,10.4,89,39,17,30.43,30.29,11,1,12,0.00
2013-5-1,74.0,54.5,34.0,45.2,16.8,-57.1,89,30,1,30.57,30.39,11,1,11,0.00
2013-5-2,83.0,56.3,39.0,52.8,21.0,-54.0,90,37,1,30.54,30.44,14,2,16,0.00
2013-5-3,64.0,50.5,40.0,48.5,27.0,-15.9,90,45,8,30.58,30.41,15,2,15,0.00
2013-5-4,65.0,49.4,37.0,51.7,5.9,-55.2,90,29,1,30.43,30.34,13,2,14,0.00
2013-5-5,66.0,47.8,31.0,47.1,2.4,-58.9,90,31,1,30.39,30.29,10,1,11,0.03
2013-5-6,76.0,52.5,33.0,57.8,-3.9,-57.7,90,24,1,30.36,30.21,9,1,10,0.03
2013-5-7,82.0,62.3,41.0,64.6,9.4,-52.7,89,28,1,30.29,30.18,10,1,10,0.03
2013-5-8,77.0,62.5,50.0,70.5,-12.6,-47.2,92,19,1,30.31,30.12,13,1,13,0.19
2013-5-9,69.0,59.8,56.0,23.6,-38.8,-43.5,18,2,1,30.12,29.96,7,1,7,0.62
2013-5-10,84.0,66.4,53.0,67.6,3.9,-45.3,87,24,1,30.07,29.95,8,1,10,0.55
2013-5-11,72.0,64.0,58.0,24.0,-26.3,-42.3,21,4,1,30.00,29.77,11,1,13,0.05
2013-5-12,73.0,61.0,49.0,63.5,-1.9,-42.3,80,24,1,29.86,29.67,18,1,18,0.05
2013-5-13,62.0,48.6,37.0,41.0,25.7,-12.7,89,43,12,30.06,29.86,12,2,15,0.01
2013-5-14,60.0,47.8,34.0,43.7,9.1,-57.1,90,32,1,30.09,30.01,12,2,12,0.01
2013-5-15,69.0,50.9,32.0,51.8,-18.4,-58.3,80,14,1,30.08,29.72,12,1,12,0.00
2013-5-16,81.0,64.8,46.0,48.9,10.1,-49.6,60,20,1,29.88,29.67,16,2,17,0.01
2013-5-17,68.0,58.5,46.0,52.8,33.7,-49.6,90,45,1,30.26,29.88,13,2,15,0.00
2013-5-18,76.0,58.6,40.0,55.8,9.2,-53.3,89,29,1,30.40,30.25,7,1,8,0.00
2013-5-19,77.0,56.8,45.0,60.5,-16.4,-50.3,89,17,1,30.44,30.28,9,1,9,0.06
2013-5-20,83.0,67.1,55.0,72.8,-7.5,-44.1,87,19,1,30.28,30.04,11,1,12,0.02
2013-5-21,84.0,62.6,51.0,73.7,-22.0,-46.6,85,9,1,30.08,29.99,14,2,14,0.00
2013-5-22,71.0,57.3,50.0,-24.3,-42.7,-47.2,2,1,1,30.12,29.94,9,1,9,0.00
2013-5-23,77.0,63.7,54.0,-30.9,-38.9,-44.7,1,1,1,29.99,29.89,10,1,13,0.00
2013-5-24,73.0,62.7,49.0,-33.3,-39.5,-47.8,1,1,1,29.89,29.73,10,1,10,0.01
2013-5-25,51.0,47.0,41.0,-46.6,-49.0,-52.7,1,1,1,29.87,29.75,10,2,10,0.00
2013-5-26,59.0,48.3,39.0,49.5,3.2,-54.0,88,36,1,30.13,29.73,16,2,16,0.01
2013-5-27,73.0,55.8,36.0,52.2,0.6,-55.8,89,22,1,30.22,30.11,12,1,12,0.01
2013-5-28,78.0,58.8,39.0,59.4,-0.7,-54.0,88,22,1,30.35,30.21,9,1,9,0.00
2013-5-29,70.0,62.4,58.0,-35.1,-39.7,-42.3,1,1,1,30.25,30.06,7,0,7,0.00
2013-5-30,88.0,73.4,59.0,75.7,2.5,-41.7,85,21,1,30.21,30.10,10,1,12,0.00
2013-5-31,97.0,78.4,60.0,74.7,23.3,-41.1,87,29,1,30.22,30.07,10,1,10,0.00
2013-6-1,96.0,79.3,63.0,76.7,21.8,-39.3,87,29,1,30.11,29.99,10,1,10,0.00
2013-6-2,92.0,77.7,68.0,75.8,7.4,-36.3,88,23,1,29.99,29.85,15,1,16,0.00
2013-6-3,78.0,68.8,60.0,58.8,-8.7,-38.7,81,17,1,29.93,29.87,7,0,7,0.00
2013-6-4,71.0,60.7,47.0,55.4,31.4,-49.0,93,44,1,30.15,29.90,10,2,10,0.00
2013-6-5,78.0,62.5,47.0,57.7,15.1,-49.0,89,33,1,30.29,30.15,8,1,8,0.00
2013-6-6,78.0,64.6,52.0,59.0,28.7,-46.0,90,41,1,30.28,30.18,11,1,11,0.00
2013-6-7,58.0,55.3,53.0,-42.9,-43.9,-45.3,1,1,1,30.18,29.86,8,1,9,0.00
2013-6-8,79.0,62.9,53.0,55.7,-14.5,-46.0,48,12,1,30.07,29.67,9,1,9,0.01
2013-6-9,80.0,66.6,53.0,66.9,5.3,-45.3,87,24,1,30.23,30.07,9,1,9,0.00
2013-6-10,70.0,61.5,53.0,47.3,-16.4,-45.3,46,11,1,30.29,30.09,8,1,8,0.00
2013-6-11,63.0,58.1,55.0,-39.3,-42.2,-44.1,1,1,1,30.09,29.64,12,1,12,0.01
2013-6-12,70.0,62.3,56.0,62.8,8.8,-43.5,90,34,1,29.89,29.61,13,2,13,0.00
2013-6-13,67.0,56.3,49.0,34.4,-36.3,-47.8,31,3,1,29.87,29.73,8,0,8,0.00
2013-6-14,73.0,59.7,52.0,65.1,-13.7,-46.0,80,18,1,29.83,29.68,9,1,10,0.01
2013-6-15,79.0,65.0,50.0,61.7,7.7,-47.2,89,23,1,30.04,29.83,7,1,10,0.00
2013-6-16,80.0,65.3,50.0,67.9,14.0,-47.2,90,32,1,30.02,29.81,9,1,9,0.00
2013-6-17,88.0,69.0,56.0,71.1,-2.0,-43.5,79,17,1,29.99,29.86,10,1,10,0.00
2013-6-18,77.0,62.2,57.0,46.3,-33.7,-42.9,35,3,1,30.04,29.95,10,1,11,0.00
2013-6-19,77.0,64.1,55.0,62.8,4.6,-44.1,88,26,1,30.20,29.97,10,1,10,0.00
2013-6-20,82.0,65.7,48.0,62.7,14.6,-48.4,88,29,1,30.37,30.20,9,0,9,0.00
2013-6-21,87.0,71.3,57.0,72.2,9.9,-42.9,88,24,1,30.37,30.29,7,1,7,0.00
2013-6-22,86.0,72.6,59.0,71.1,24.3,-41.7,89,35,1,30.34,30.23,9,1,9,0.00
2013-6-23,93.0,76.9,64.0,77.3,28.6,-38.7,90,33,1,30.25,30.13,12,1,12,0.00
2013-6-24,94.0,79.5,68.0,81.4,16.4,-36.3,90,28,1,30.13,30.01,10,1,10,0.00
2013-6-25,93.0,79.2,67.0,79.7,24.6,-36.9,92,33,1,30.03,29.85,9,1,11,0.00
2013-6-26,87.0,74.7,68.0,80.3,-4.5,-36.3,90,17,1,29.95,29.83,10,1,11,0.00
2013-6-27,76.0,66.8,62.0,-18.5,-37.0,-39.9,2,1,1,29.95,29.84,9,1,9,0.00
2013-6-28,84.0,72.2,59.0,36.4,-26.7,-41.7,19,2,1,29.84,29.61,12,2,12,0.00
2013-6-29,85.0,75.1,70.0,76.7,2.2,-35.1,90,25,1,29.82,29.61,10,1,10,0.00
2013-6-30,89.0,76.3,67.0,81.0,5.3,-36.9,88,23,1,30.05,29.83,9,1,9,0.00
2013-7-1,83.0,74.2,71.0,-27.3,-32.6,-35.1,1,1,1,30.19,30.04,7,1,7,0.00
2013-7-2,85.0,73.5,62.0,50.7,-19.9,-39.9,35,5,1,30.30,30.17,9,1,9,0.00
2013-7-3,90.0,74.8,61.0,82.0,3.4,-40.5,89,21,1,30.33,30.25,9,1,10,0.00
2013-7-4,97.0,82.2,70.0,82.5,18.7,-35.1,89,29,1,30.34,30.23,9,1,9,0.00
2013-7-5,95.0,83.2,72.0,81.5,21.3,-33.9,89,28,1,30.30,30.17,12,0,12,0.00
2013-7-6,93.0,80.6,71.0,79.6,15.9,-35.1,89,28,1,30.20,30.12,10,1,10,0.00
2013-7-7,95.0,77.6,66.0,84.0,-0.7,-37.5,88,20,1,30.15,30.03,8,0,8,0.00
2013-7-8,87.0,76.3,68.0,54.3,-12.0,-36.3,35,7,1,30.17,30.01,8,1,9,0.00
2013-7-9,74.0,68.8,65.0,-32.7,-35.8,-38.1,1,1,1,30.21,30.14,6,0,6,0.00
2013-7-10,87.0,73.9,66.0,55.1,-21.4,-37.5,35,4,1,30.17,29.91,10,1,10,0.00
2013-7-11,85.0,75.0,70.0,48.2,-30.1,-35.1,29,1,1,30.03,29.88,7,0,7,0.00
2013-7-12,78.0,70.5,66.0,68.1,23.6,-37.5,90,39,1,30.29,30.03,10,1,11,0.00
2013-7-13,80.0,70.9,63.0,39.0,-21.6,-39.3,24,4,1,30.43,30.29,6,1,6,0.00
2013-7-14,92.0,78.4,68.0,81.0,7.3,-36.3,88,23,1,30.42,30.31,7,1,7,0.00
2013-7-15,93.0,78.6,68.0,82.0,6.3,-36.3,88,24,1,30.33,30.23,8,1,9,0.00
2013-7-16,94.0,78.5,66.0,79.7,9.7,-37.5,72,22,1,30.29,30.21,9,1,9,0.00
2013-7-17,96.0,87.3,71.0,81.1,40.7,-34.5,91,37,1,30.32,30.12,7,1,7,0.00
2013-7-18,99.0,82.2,73.0,78.8,19.4,-33.3,90,29,1,30.17,30.07,9,1,9,0.01
2013-7-19,99.0,82.9,71.0,85.0,7.4,-34.5,90,19,1,30.06,29.88,11,1,12,0.01
2013-7-20,94.0,82.7,72.0,83.3,25.1,-32.1,93,33,1,29.93,29.81,8,1,8,0.01
2013-7-21,85.0,73.5,65.0,74.2,10.3,-38.1,92,28,1,30.10,29.93,9,1,9,0.01
2013-7-22,87.0,72.5,64.0,75.1,-4.3,-38.7,92,19,1,30.15,30.00,8,1,8,0.01
2013-7-23,81.0,71.8,68.0,-29.1,-34.0,-36.3,1,1,1,30.00,29.66,9,0,9,0.02
2013-7-24,87.0,76.2,70.0,76.7,2.3,-35.1,77,23,1,29.89,29.69,10,1,10,0.01
2013-7-29,87.0,80.6,66.0,78.4,45.9,-37.5,87,49,1,30.17,30.10,9,1,9,0.08
2013-7-30,85.0,75.1,60.0,70.2,30.6,-41.1,89,35,1,30.24,30.14,9,1,9,0.03
2013-7-31,86.0,70.6,58.0,71.2,6.9,-42.3,88,25,1,30.27,30.15,7,1,8,0.01
2013-8-1,84.0,75.2,66.0,72.2,25.2,-37.5,89,36,1,30.12,29.99,9,1,11,0.00
2013-8-2,85.0,75.6,64.0,72.3,25.3,-38.7,89,34,1,29.99,29.92,9,1,9,0.00
2013-8-3,80.0,69.9,62.0,72.9,2.5,-39.9,89,25,1,29.97,29.91,9,0,9,0.01
2013-8-4,83.0,67.3,56.0,67.9,7.1,-43.5,90,25,1,29.99,29.89,8,0,9,0.00
2013-8-5,77.0,63.4,52.0,58.0,6.0,-46.0,86,24,1,30.13,29.96,9,1,9,0.00
2013-8-6,83.0,63.7,48.0,62.3,4.0,-48.4,90,24,1,30.27,30.12,7,0,7,0.00
2013-8-7,84.0,67.2,52.0,66.8,12.9,-46.0,90,28,1,30.31,30.22,9,1,9,0.00
2013-8-8,81.0,71.1,62.0,35.2,-25.5,-39.9,23,3,1,30.23,30.14,8,1,8,0.00
2013-8-9,74.0,71.2,69.0,-32.7,-34.4,-35.7,1,1,1,30.14,29.87,11,1,11,0.00
2013-8-10,85.0,72.3,60.0,68.6,6.5,-41.1,88,24,1,30.10,29.90,10,1,10,0.01
2013-8-11,82.0,66.6,52.0,67.9,1.5,-46.0,87,22,1,30.21,30.10,9,1,9,0.00
2013-8-12,85.0,69.7,57.0,69.9,3.6,-42.9,87,22,1,30.15,30.02,8,0,8,0.01
2013-8-13,73.0,66.7,62.0,15.3,-33.8,-39.9,11,1,1,30.02,29.78,9,0,9,0.01
2013-8-14,74.0,65.6,56.0,61.3,16.8,-43.5,88,34,1,30.04,29.75,15,2,15,0.01
2013-8-15,80.0,63.8,49.0,62.7,1.5,-47.8,86,23,1,30.21,30.04,9,1,10,0.04
2013-8-16,81.0,64.9,51.0,69.5,-3.8,-46.6,86,20,1,30.29,30.17,10,1,10,0.07
2013-8-17,84.0,65.8,52.0,71.1,-2.5,-46.0,86,22,1,30.41,30.27,8,1,8,0.05
2013-8-18,80.0,66.7,56.0,72.3,-11.2,-43.5,89,20,1,30.39,30.17,6,0,7,0.01
2013-8-19,84.0,69.9,56.0,71.1,9.6,-43.5,89,27,1,30.17,30.09,7,1,8,0.00
2013-8-20,90.0,72.4,59.0,74.8,2.7,-41.7,88,20,1,30.22,30.08,7,1,7,0.00
2013-8-21,92.0,73.4,59.0,74.1,4.5,-41.7,88,21,1,30.29,30.13,7,0,7,0.00
2013-8-22,91.0,74.5,61.0,80.3,5.8,-40.5,88,24,1,30.13,29.94,8,0,9,0.00
2013-8-23,82.0,71.5,61.0,69.0,19.8,-37.5,90,31,1,30.22,29.93,10,1,12,0.00
2013-8-24,82.0,64.3,51.0,61.3,9.0,-46.6,88,25,1,30.44,30.22,9,1,10,0.00
2013-8-25,88.0,66.6,49.0,65.9,11.6,-47.8,90,26,1,30.49,30.28,7,0,9,0.00
2013-8-26,83.0,70.8,62.0,74.1,16.9,-39.9,90,30,1,30.29,29.99,9,0,10,0.00
2013-8-27,86.0,71.9,68.0,77.1,-13.8,-36.9,76,13,1,30.01,29.94,6,0,6,0.00
2013-8-28,89.0,72.7,65.0,74.1,11.3,-38.1,91,30,1,30.08,30.00,7,1,8,0.00
2013-8-29,66.0,64.2,60.0,-37.5,-38.6,-41.1,1,1,1,30.17,30.05,11,1,11,0.00
2013-8-30,88.0,70.6,59.0,77.3,3.5,-41.7,89,25,1,30.12,29.94,9,0,10,0.00
2013-8-31,82.0,73.3,67.0,-28.5,-33.1,-36.9,1,1,1,29.96,29.90,7,0,8,0.00
2013-9-1,76.0,70.3,68.0,-31.5,-34.9,-36.3,1,1,1,30.00,29.91,4,0,5,0.00
2013-9-2,78.0,73.9,71.0,-30.9,-32.7,-34.5,1,1,1,29.95,29.83,7,0,7,0.00
2013-9-3,85.0,72.8,61.0,64.8,-25.5,-40.5,54,4,1,29.91,29.81,10,0,10,0.00
2013-9-4,84.0,67.8,55.0,66.2,5.5,-44.1,86,25,1,30.03,29.89,9,1,9,0.00
2013-9-5,71.0,61.3,49.0,58.1,-9.7,-47.8,85,19,1,30.21,29.94,10,1,10,0.00
2013-9-6,77.0,56.2,41.0,54.5,-4.9,-52.7,86,22,1,30.35,30.15,7,1,9,0.00
2013-9-7,85.0,63.2,46.0,63.6,-1.0,-49.6,83,22,1,30.15,29.95,8,0,9,0.00
2013-9-8,77.0,63.2,47.0,66.1,6.0,-49.0,88,27,1,30.15,29.84,13,1,13,0.00
2013-9-9,75.0,56.9,40.0,55.1,2.7,-53.3,87,25,1,30.34,30.15,7,0,7,0.00
2013-9-10,74.0,64.7,53.0,-32.7,-38.3,-45.3,1,1,1,30.23,30.14,10,0,10,0.00
2013-9-11,99.0,80.1,66.0,84.4,7.6,-37.5,86,21,1,30.21,30.09,11,0,11,0.00
2013-9-12,89.0,76.1,67.0,79.0,-1.6,-36.9,85,20,1,30.10,29.78,11,1,19,0.00
2013-9-13,84.0,67.9,59.0,71.8,-33.2,-41.7,67,2,1,29.85,29.70,9,0,9,0.02
2013-9-14,68.0,60.1,50.0,55.2,-6.5,-47.2,66,20,1,30.12,29.85,7,1,9,0.01
2013-9-15,77.0,58.4,45.0,58.7,-6.6,-50.3,83,22,1,30.28,30.12,8,0,8,0.09
2013-9-16,70.0,56.7,47.0,58.2,-3.0,-46.0,83,29,1,30.31,30.08,8,1,10,0.02
2013-9-17,67.0,50.3,37.0,51.9,-0.5,-55.2,83,28,1,30.51,30.31,10,1,10,0.06
2013-9-18,79.0,55.3,38.0,57.4,-11.1,-54.6,85,18,1,30.38,30.19,6,0,7,0.03
2013-9-19,84.0,59.9,43.0,65.6,-8.0,-51.5,86,19,1,30.24,30.12,8,0,8,0.00
2013-9-20,86.0,61.9,45.0,66.8,-8.2,-50.3,85,18,1,30.21,30.08,7,0,8,0.00
2013-9-21,75.0,63.2,49.0,46.5,-24.4,-47.8,39,5,1,30.09,29.83,10,1,13,0.00
2013-9-22,73.0,63.5,50.0,61.4,-4.4,-47.2,84,24,1,29.89,29.70,10,1,10,0.00
2013-9-23,67.0,52.7,43.0,51.2,4.7,-51.5,84,34,1,30.06,29.89,7,1,11,0.00
2013-9-24,69.0,52.6,38.0,52.5,-2.4,-54.6,84,28,1,30.03,29.91,9,1,10,0.00
2013-9-25,73.0,54.6,41.0,59.8,-6.2,-52.7,85,27,1,30.05,29.91,11,1,11,0.00
2013-9-26,71.0,57.3,51.0,57.4,-6.8,-46.6,82,25,1,30.19,30.05,8,1,8,0.00
2013-9-27,65.0,56.8,48.0,44.8,-23.0,-48.4,48,9,1,30.33,30.19,8,1,8,0.00
2013-9-28,76.0,56.6,43.0,62.3,-10.9,-51.5,83,22,1,30.44,30.30,8,1,9,0.00
2013-9-29,74.0,53.8,43.0,57.4,-21.3,-51.5,83,16,1,30.32,30.17,6,0,9,0.00
2013-9-30,74.0,54.9,45.0,58.4,-21.0,-50.3,82,16,1,30.17,30.01,6,0,6,0.00
2013-10-1,80.0,58.2,42.0,64.2,-15.7,-52.1,82,16,1,30.06,29.95,10,1,10,0.00
2013-10-2,81.0,63.0,47.0,67.9,-4.0,-49.0,82,24,1,30.03,29.93,9,1,10,0.00
2013-10-3,83.0,60.6,47.0,60.5,-8.2,-49.0,82,19,1,30.21,30.03,6,0,6,0.00
2013-10-4,64.0,55.7,48.0,-38.7,-43.7,-48.4,1,1,1,30.17,30.10,6,0,7,0.00
2013-10-5,72.0,61.6,56.0,53.9,-30.3,-43.5,53,4,1,30.21,30.13,6,0,6,0.00
2013-10-6,59.0,55.7,53.0,-41.7,-43.7,-45.3,1,1,1,30.30,30.19,7,0,8,0.00
2013-10-7,78.0,64.5,56.0,-30.9,-38.4,-43.5,1,1,1,30.20,29.92,15,1,17,0.00
2013-10-8,68.0,55.6,43.0,54.0,-7.0,-52.1,81,24,1,30.42,29.99,9,1,10,0.00
2013-10-9,65.0,48.8,37.0,54.0,-14.1,-55.2,73,24,1,30.56,30.40,9,1,9,0.00
2013-10-10,63.0,50.1,38.0,39.5,-36.1,-54.6,42,5,1,30.40,30.23,8,0,8,0.00
2013-10-11,74.0,55.3,43.0,61.8,-10.9,-51.5,82,20,1,30.25,30.17,9,1,9,0.00
2013-10-12,59.0,51.7,41.0,-41.7,-46.1,-52.7,1,1,1,30.46,30.20,9,1,9,0.00
2013-10-13,60.0,50.2,37.0,46.0,-21.1,-55.2,62,14,1,30.53,30.42,7,1,7,0.00
2013-10-14,70.0,48.5,31.0,52.9,-16.7,-58.9,82,21,1,30.45,30.31,7,0,7,0.00
2013-10-15,66.0,54.9,46.0,50.3,-18.9,-49.6,57,13,1,30.34,30.23,7,0,7,0.00
2013-10-16,63.0,54.0,46.0,32.5,-37.2,-49.6,33,3,1,30.23,29.96,6,0,6,0.00
2013-10-17,78.0,59.8,48.0,66.0,-17.2,-48.4,75,17,1,29.97,29.80,7,0,7,0.00
2013-10-18,70.0,58.8,42.0,57.1,-6.0,-52.1,78,24,1,29.95,29.69,13,1,13,0.00
2013-10-19,70.0,53.0,36.0,54.6,5.4,-55.8,81,34,1,30.06,29.81,7,0,9,0.00
2013-10-20,63.0,51.4,36.0,47.7,4.3,-55.8,81,31,1,30.03,29.74,15,1,15,0.00
2013-10-21,70.0,49.7,33.0,54.0,-0.7,-57.7,83,32,1,30.18,30.03,8,1,8,0.00
2013-10-22,68.0,51.5,37.0,58.0,6.1,-55.2,80,40,1,30.03,29.78,10,0,10,0.00
2013-10-23,53.0,43.3,33.0,43.8,-3.2,-57.7,80,32,1,29.82,29.63,6,0,6,0.00
2013-10-24,56.0,43.8,31.0,40.7,9.9,-58.9,82,41,1,29.90,29.67,16,1,16,0.00
2013-10-25,52.0,37.1,26.0,42.1,-4.2,-62.1,82,36,1,30.15,29.89,13,1,14,0.05
2013-10-26,58.0,40.5,23.0,43.4,-5.9,-63.9,82,32,1,30.15,29.91,12,1,12,0.00
2013-10-27,56.0,46.4,35.0,45.6,14.1,-54.6,84,46,1,30.07,29.83,16,1,16,0.03
2013-10-28,60.0,42.1,26.0,43.3,4.1,-62.1,85,39,1,30.36,30.07,13,1,14,0.00
2013-10-29,55.0,34.4,22.0,33.0,-0.6,-64.6,85,38,1,30.48,30.35,8,1,8,0.00
2013-10-30,52.0,36.8,26.0,44.7,-31.9,-62.1,78,16,1,30.35,30.23,8,0,8,0.02
2013-10-31,60.0,44.4,28.0,-41.1,-50.7,-60.8,1,1,1,30.24,29.86,9,0,9,0.16
2013-11-1,69.0,62.5,51.0,52.1,-14.5,-46.6,65,14,1,29.86,29.54,17,2,17,0.17
2013-11-2,70.0,53.7,41.0,55.7,-3.8,-52.7,83,26,1,29.78,29.67,9,0,10,0.00
2013-11-3,48.0,40.4,28.0,36.2,14.5,-50.3,80,46,1,30.41,29.76,12,2,12,0.00
2013-11-4,46.0,30.4,21.0,24.4,17.9,-17.0,95,64,28,30.69,30.41,10,1,11,0.00
2013-11-5,55.0,34.9,20.0,34.7,3.4,-65.2,82,37,1,30.73,30.52,7,0,7,0.00
2013-11-6,64.0,48.8,34.0,50.7,9.5,-56.4,81,37,1,30.52,30.09,10,1,10,0.00
2013-11-7,65.0,52.5,33.0,50.3,-12.8,-49.6,76,22,1,30.09,29.74,12,1,12,0.15
2013-11-8,52.0,36.8,25.0,39.8,16.0,-62.1,87,52,1,30.08,29.81,15,1,15,0.01
2013-11-9,47.0,36.4,23.0,34.0,25.7,3.2,83,67,38,30.23,30.04,13,1,13,0.00
2013-11-10,58.0,43.4,35.0,49.2,9.4,-54.6,86,48,1,30.04,29.79,10,1,11,0.07
2013-11-11,55.0,44.7,36.0,36.2,31.4,25.3,82,61,34,30.15,29.87,12,1,13,0.07
2013-11-12,48.0,34.5,24.0,41.8,13.2,-57.7,87,58,1,30.17,29.92,16,2,16,0.13
2013-11-13,39.0,25.9,16.0,22.6,15.9,6.7,91,68,36,30.29,30.14,12,1,12,0.00
2013-11-14,53.0,36.4,25.0,31.2,23.8,16.8,87,64,32,30.14,30.05,11,1,13,0.00
2013-11-15,64.0,41.1,22.0,33.6,20.6,-3.1,84,49,17,30.25,30.09,10,0,10,0.00
2013-11-16,65.0,42.2,28.0,38.1,25.4,5.7,83,54,24,30.35,30.19,7,0,7,0.01
2013-11-17,51.0,40.4,27.0,42.6,-1.2,-50.3,74,35,1,30.32,29.87,7,0,7,0.02
2013-11-18,68.0,55.0,41.0,56.0,6.9,-50.3,83,35,1,29.87,29.60,13,1,15,0.10
2013-11-19,48.0,38.8,29.0,34.5,24.1,17.6,74,56,40,30.27,29.69,20,2,20,0.05
2013-11-20,43.0,29.9,18.0,23.0,17.1,11.4,100,62,29,30.62,30.27,12,2,12,0.00
2013-11-21,53.0,31.6,15.0,30.8,16.6,-64.6,92,58,1,30.64,30.37,9,0,9,0.00
2013-11-22,45.0,40.8,33.0,27.9,-32.3,-55.2,78,17,1,30.37,29.84,3,0,4,0.15
2013-11-23,48.0,38.9,27.0,36.2,14.0,-52.1,90,51,1,29.95,29.78,17,2,17,0.01
2013-11-24,27.0,22.4,17.0,24.0,6.0,-4.5,98,52,28,30.17,29.77,22,4,25,0.00
2013-11-25,36.0,23.2,13.0,18.7,4.5,-7.3,65,46,19,30.36,30.17,12,1,13,0.00
2013-11-26,40.0,33.9,29.0,32.5,6.4,-58.3,94,48,1,30.34,30.05,9,1,10,0.07
2013-11-27,61.0,49.1,34.0,8.3,-46.9,-57.1,31,1,1,30.05,29.27,13,2,16,0.53
2013-11-28,36.0,29.5,20.0,29.2,17.2,-5.9,88,62,16,30.41,29.47,17,2,19,0.03
2013-11-29,35.0,24.3,15.0,23.0,14.2,-0.7,100,69,33,30.73,30.41,10,1,11,0.04
2013-11-30,38.0,21.7,9.0,27.3,17.4,7.9,100,86,48,30.78,30.41,7,0,7,0.13
2013-12-1,35.0,31.9,28.0,30.0,-25.9,-59.6,98,34,1,30.41,30.03,6,0,6,0.23
2013-12-2,38.0,35.9,34.0,-54.6,-55.9,-57.1,1,1,1,30.03,29.94,6,0,6,0.30
2013-12-3,49.0,35.7,24.0,41.1,-30.5,-63.3,85,20,1,29.94,29.89,8,1,8,0.08
2013-12-4,44.0,30.5,21.0,35.6,-25.0,-65.2,84,27,1,30.19,29.94,8,0,8,0.00
2013-12-5,44.0,36.3,25.0,13.3,-41.5,-62.7,42,6,1,30.21,29.95,5,0,5,0.00
2013-12-6,53.0,46.0,32.0,41.1,-27.2,-58.3,79,17,1,30.17,29.90,10,1,10,0.09
2013-12-7,41.0,31.1,20.0,33.7,-13.8,-65.2,88,38,1,30.44,30.09,12,1,12,0.10
2013-12-8,30.0,24.6,16.0,24.6,12.1,-65.2,91,66,2,30.58,30.43,7,1,7,0.00
2013-12-9,34.0,29.2,23.0,23.5,-40.9,-63.3,90,14,1,30.48,29.88,7,1,8,0.01
2013-12-10,32.0,28.9,22.0,24.3,-36.3,-60.2,94,23,1,29.97,29.77,9,0,11,0.00
2013-12-11,35.0,23.2,15.0,25.0,20.3,12.3,100,90,51,30.19,29.97,13,1,13,0.09
2013-12-12,27.0,17.7,10.0,21.0,10.4,0.6,100,77,37,30.26,30.02,14,1,15,0.00
2013-12-13,29.0,19.1,9.0,23.8,14.6,5.5,100,85,53,30.36,29.95,13,1,14,0.00
2013-12-14,18.0,12.1,8.0,15.0,6.5,-1.4,100,79,58,30.58,30.13,7,2,10,0.00
2013-12-15,32.0,23.9,15.0,25.8,-5.0,-63.9,100,58,1,30.13,29.41,17,1,17,0.00
2013-12-16,30.0,20.6,12.0,22.0,13.2,6.1,100,74,47,30.17,29.70,15,1,17,0.17
2013-12-17,16.0,8.3,-4.0,15.1,8.1,-4.0,100,99,86,30.25,29.93,7,1,7,0.00
2013-12-18,37.0,22.3,13.0,26.2,19.6,11.3,100,91,58,30.06,29.85,10,0,10,0.22
2013-12-19,45.0,29.9,18.0,31.8,25.2,18.0,100,85,51,30.10,29.98,11,1,14,0.41
2013-12-20,56.0,37.6,25.0,44.7,31.8,14.8,96,80,55,30.11,29.93,7,0,7,0.58
2013-12-21,58.0,43.1,34.0,52.5,36.7,-3.8,96,79,19,29.99,29.90,7,0,8,0.09
2013-12-22,49.0,37.7,32.0,29.1,-46.3,-58.3,70,7,1,30.03,29.81,8,1,9,0.01
2013-12-23,36.0,32.1,30.0,-56.4,-58.2,-59.6,1,1,1,30.09,29.96,10,1,11,0.49
2013-12-24,36.0,30.7,23.0,35.0,15.2,-57.1,100,67,1,30.18,30.06,12,1,12,0.12
2013-12-25,24.0,16.8,11.0,16.8,8.2,1.6,100,70,45,30.53,30.18,16,2,17,0.00
2013-12-26,28.0,19.7,11.0,28.0,17.1,2.5,100,91,50,30.47,30.07,6,0,6,0.00
2013-12-27,36.0,21.5,11.0,32.2,17.6,-51.2,100,87,2,30.26,30.16,9,0,10,0.06
2013-12-28,48.0,29.0,15.0,33.7,21.5,6.7,100,76,46,30.20,30.00,9,1,10,0.00
2013-12-29,40.0,31.8,22.0,37.5,-4.8,-56.4,100,44,1,30.02,29.43,15,1,15,0.43
2013-12-30,43.0,30.6,16.0,37.5,-13.1,-60.2,98,38,1,30.15,29.53,19,1,19,0.60
2013-12-31,27.0,16.6,11.0,18.0,9.0,-1.2,100,74,42,30.15,30.00,12,1,12,0.01
2014-1-1,29.0,18.3,8.0,18.0,11.7,7.1,100,78,43,30.36,30.15,11,1,12,0.00
2014-1-2,18.0,9.1,-2.0,18.0,9.1,-2.0,100,100,98,30.34,29.82,16,4,16,0.00